�������l�o���
Date,Time,MP-1(��Sv/h),MP-2(��Sv/h),MP-3(��Sv/h),MP-4(��Sv/h),MP-5(��Sv/h),MP-6(��Sv/h),MP-7(��Sv/h),MP-8(��Sv/h),����,����(m/s),���J
2020/08/01,00:00,0.646,0.919,0.579,1.112,0.788,0.388,0.660,0.624,�k,1.2,��
2020/08/01,00:10,0.647,0.919,0.580,1.110,0.788,0.390,0.659,0.623,�k�k��,0.8,��
2020/08/01,00:20,0.647,0.919,0.580,1.110,0.789,0.389,0.660,0.624,�k�k��,1.2,��
2020/08/01,00:30,0.645,0.918,0.579,1.110,0.788,0.389,0.659,0.622,�k��,0.9,��
2020/08/01,00:40,0.646,0.919,0.579,1.111,0.787,0.389,0.660,0.623,�k��,1.2,��
2020/08/01,00:50,0.646,0.918,0.580,1.111,0.788,0.388,0.658,0.622,���k��,1.1,��
2020/08/01,01:00,0.645,0.919,0.579,1.108,0.788,0.389,0.658,0.622,�쓌,0.8,��
2020/08/01,01:10,0.645,0.920,0.579,1.111,0.787,0.388,0.657,0.622,��,0.9,��
2020/08/01,01:20,0.644,0.917,0.579,1.112,0.788,0.388,0.659,0.623,���k��,0.8,��
2020/08/01,01:30,0.645,0.920,0.580,1.110,0.787,0.388,0.658,0.622,���k��,0.8,��
2020/08/01,01:40,0.645,0.917,0.579,1.108,0.788,0.387,0.658,0.621,��,1.4,��
2020/08/01,01:50,0.645,0.920,0.578,1.111,0.788,0.388,0.658,0.622,���쓌,1.4,��
2020/08/01,02:00,0.645,0.916,0.578,1.110,0.785,0.386,0.659,0.622,-,CALM,��
2020/08/01,02:10,0.645,0.918,0.579,1.108,0.788,0.386,0.658,0.620,-,CALM,��
2020/08/01,02:20,0.643,0.917,0.580,1.109,0.786,0.386,0.657,0.622,�k��,1.5,��
2020/08/01,02:30,0.642,0.918,0.579,1.108,0.787,0.387,0.658,0.621,�k��,1.7,��
2020/08/01,02:40,0.643,0.919,0.578,1.110,0.787,0.388,0.659,0.623,�k��,2.0,��
2020/08/01,02:50,0.645,0.919,0.577,1.109,0.786,0.387,0.659,0.622,���k��,2.2,��
2020/08/01,03:00,0.644,0.918,0.579,1.109,0.787,0.389,0.657,0.621,�k��,3.1,��
2020/08/01,03:10,0.647,0.919,0.580,1.111,0.788,0.387,0.658,0.624,�k��,3.1,��
2020/08/01,03:20,0.645,0.920,0.580,1.109,0.790,0.389,0.659,0.624,�k��,3.1,��
2020/08/01,03:30,0.645,0.921,0.581,1.111,0.789,0.390,0.658,0.624,�k��,3.3,��
2020/08/01,03:40,0.646,0.921,0.580,1.113,0.788,0.390,0.658,0.625,�k��,4.0,��
2020/08/01,03:50,0.647,0.922,0.580,1.110,0.789,0.390,0.659,0.623,�k��,3.4,��
2020/08/01,04:00,0.645,0.920,0.582,1.112,0.790,0.389,0.659,0.624,�k��,3.9,��
2020/08/01,04:10,0.645,0.922,0.581,1.111,0.790,0.388,0.658,0.625,�k�k��,4.7,��
2020/08/01,04:20,0.646,0.920,0.580,1.110,0.788,0.389,0.660,0.624,�k��,4.2,��
2020/08/01,04:30,0.646,0.920,0.580,1.110,0.790,0.389,0.658,0.625,�k�k��,3.5,��
2020/08/01,04:40,0.647,0.919,0.580,1.111,0.790,0.388,0.660,0.624,�k�k��,4.1,��
2020/08/01,04:50,0.647,0.922,0.581,1.113,0.791,0.389,0.660,0.624,�k,3.6,��
2020/08/01,05:00,0.645,0.920,0.580,1.110,0.791,0.389,0.660,0.623,�k,2.5,��
2020/08/01,05:10,0.646,0.921,0.581,1.110,0.790,0.390,0.660,0.624,�k�k��,3.1,��
2020/08/01,05:20,0.647,0.922,0.581,1.114,0.790,0.389,0.660,0.623,�k�k��,3.6,��
2020/08/01,05:30,0.645,0.921,0.582,1.113,0.789,0.388,0.660,0.624,�k,3.4,��
2020/08/01,05:40,0.644,0.922,0.580,1.112,0.791,0.389,0.659,0.624,�k,1.7,��
2020/08/01,05:50,0.646,0.920,0.580,1.110,0.786,0.388,0.659,0.622,�k�k��,2.6,��
2020/08/01,06:00,0.646,0.917,0.581,1.111,0.791,0.387,0.659,0.624,�k�k��,2.6,��
2020/08/01,06:10,0.645,0.919,0.580,1.111,0.787,0.388,0.661,0.624,�k��,2.6,��
2020/08/01,06:20,0.644,0.922,0.580,1.112,0.791,0.388,0.660,0.622,�k�k��,2.2,��
2020/08/01,06:30,0.645,0.922,0.580,1.111,0.789,0.389,0.659,0.624,�k�k��,2.9,��
2020/08/01,06:40,0.646,0.921,0.581,1.112,0.789,0.388,0.660,0.626,�k,2.3,��
2020/08/01,06:50,0.646,0.921,0.579,1.110,0.789,0.387,0.660,0.624,�k�k��,2.0,��
2020/08/01,07:00,0.645,0.918,0.578,1.112,0.787,0.387,0.659,0.624,�k,2.0,��
2020/08/01,07:10,0.646,0.919,0.580,1.111,0.790,0.387,0.659,0.623,�k,2.6,��
2020/08/01,07:20,0.645,0.917,0.579,1.111,0.788,0.386,0.661,0.623,�k��,1.9,��
2020/08/01,07:30,0.645,0.920,0.579,1.111,0.788,0.387,0.660,0.623,�k�k��,2.3,��
2020/08/01,07:40,0.646,0.918,0.578,1.108,0.790,0.385,0.659,0.622,�k,1.2,��
2020/08/01,07:50,0.648,0.918,0.578,1.109,0.786,0.386,0.658,0.621,���k��,1.9,��
2020/08/01,08:00,0.646,0.916,0.578,1.112,0.790,0.387,0.659,0.621,���k��,2.2,��
2020/08/01,08:10,0.645,0.917,0.579,1.111,0.791,0.386,0.659,0.619,�k��,1.5,��
2020/08/01,08:20,0.645,0.919,0.579,1.113,0.790,0.386,0.658,0.621,�k�k��,2.2,��
2020/08/01,08:30,0.646,0.919,0.579,1.112,0.789,0.386,0.659,0.621,�k��,2.0,��
2020/08/01,08:40,0.644,0.918,0.578,1.111,0.790,0.386,0.659,0.622,�k��,2.3,��
2020/08/01,08:50,0.647,0.916,0.578,1.111,0.790,0.386,0.659,0.621,�k��,2.6,��
2020/08/01,09:00,0.647,0.918,0.579,1.110,0.789,0.387,0.659,0.621,�k�k��,2.8,��
2020/08/01,09:10,0.644,0.916,0.580,1.108,0.791,0.387,0.660,0.621,�k�k��,3.1,��
2020/08/01,09:20,0.646,0.914,0.580,1.111,0.789,0.387,0.659,0.621,�k�k��,2.6,��
2020/08/01,09:30,0.645,0.918,0.579,1.109,0.788,0.388,0.660,0.622,�k�k��,2.3,��
2020/08/01,09:40,0.647,0.919,0.578,1.110,0.789,0.388,0.659,0.620,�k�k��,3.7,��
2020/08/01,09:50,0.647,0.918,0.580,1.110,0.789,0.387,0.660,0.621,�k�k��,4.7,��
2020/08/01,10:00,0.646,0.920,0.579,1.109,0.792,0.389,0.660,0.621,�k��,4.9,��
2020/08/01,10:10,0.649,0.918,0.581,1.110,0.790,0.387,0.660,0.623,�k��,4.8,��
2020/08/01,10:20,0.645,0.922,0.581,1.111,0.792,0.388,0.660,0.622,���k��,4.7,��
2020/08/01,10:30,0.644,0.920,0.582,1.112,0.791,0.388,0.661,0.622,�k��,5.9,��
2020/08/01,10:40,0.646,0.922,0.579,1.112,0.792,0.388,0.658,0.622,�k��,5.7,��
2020/08/01,10:50,0.646,0.917,0.580,1.114,0.790,0.389,0.660,0.623,�k��,5.0,��
2020/08/01,11:00,0.647,0.920,0.583,1.114,0.792,0.388,0.660,0.622,���k��,3.8,��
2020/08/01,11:10,0.647,0.922,0.579,1.113,0.792,0.388,0.660,0.622,�k��,3.6,��
2020/08/01,11:20,0.647,0.921,0.579,1.112,0.793,0.387,0.661,0.622,�k��,3.2,��
2020/08/01,11:30,0.647,0.921,0.581,1.112,0.793,0.387,0.660,0.621,��,3.1,��
2020/08/01,11:40,0.648,0.923,0.579,1.111,0.792,0.390,0.661,0.623,��,2.5,��
2020/08/01,11:50,0.647,0.926,0.580,1.111,0.795,0.387,0.662,0.623,���k��,2.6,��
2020/08/01,12:00,0.646,0.924,0.580,1.111,0.792,0.390,0.661,0.622,�k��,3.1,��
2020/08/01,12:10,0.647,0.924,0.582,1.111,0.794,0.389,0.662,0.623,���k��,2.5,��
2020/08/01,12:20,0.648,0.924,0.582,1.112,0.793,0.388,0.660,0.622,��,2.6,��
2020/08/01,12:30,0.647,0.925,0.581,1.111,0.794,0.389,0.661,0.623,�k��,2.3,��
2020/08/01,12:40,0.649,0.927,0.581,1.113,0.794,0.390,0.661,0.622,�k��,2.5,��
2020/08/01,12:50,0.649,0.924,0.581,1.113,0.794,0.390,0.663,0.623,�k�k��,2.8,��
2020/08/01,13:00,0.647,0.925,0.582,1.113,0.795,0.390,0.663,0.624,�k�k��,2.6,��
2020/08/01,13:10,0.648,0.926,0.582,1.114,0.799,0.392,0.662,0.623,�k�k��,3.7,��
2020/08/01,13:20,0.649,0.928,0.583,1.112,0.797,0.390,0.664,0.624,�k�k��,3.7,��
2020/08/01,13:30,0.649,0.926,0.584,1.114,0.796,0.389,0.662,0.625,�k�k��,2.9,��
2020/08/01,13:40,0.650,0.925,0.583,1.115,0.794,0.389,0.662,0.623,�k��,2.5,��
2020/08/01,13:50,0.649,0.925,0.582,1.114,0.798,0.389,0.665,0.625,�k��,3.1,��
2020/08/01,14:00,0.651,0.924,0.584,1.114,0.797,0.389,0.663,0.625,�k��,3.3,��
2020/08/01,14:10,0.650,0.927,0.583,1.114,0.797,0.389,0.662,0.623,���k��,3.0,��
2020/08/01,14:20,0.649,0.926,0.583,1.113,0.798,0.391,0.663,0.625,���k��,3.0,��
2020/08/01,14:30,0.650,0.928,0.583,1.114,0.794,0.389,0.663,0.622,���k��,2.6,��
2020/08/01,14:40,0.650,0.928,0.580,1.113,0.797,0.390,0.665,0.622,���k��,3.0,��
2020/08/01,14:50,0.651,0.926,0.582,1.113,0.796,0.389,0.664,0.624,��,2.6,��
2020/08/01,15:00,0.649,0.927,0.583,1.114,0.798,0.389,0.662,0.623,��,2.0,��
2020/08/01,15:10,0.650,0.928,0.583,1.116,0.797,0.390,0.663,0.623,��,2.9,��
2020/08/01,15:20,0.648,0.929,0.582,1.117,0.797,0.390,0.663,0.624,���쓌,2.6,��
2020/08/01,15:30,0.648,0.929,0.584,1.117,0.797,0.389,0.664,0.624,���쓌,2.0,��
2020/08/01,15:40,0.648,0.929,0.583,1.116,0.797,0.390,0.663,0.622,���쓌,2.0,��
2020/08/01,15:50,0.651,0.930,0.583,1.117,0.799,0.390,0.663,0.624,�쓌,1.1,��
2020/08/01,16:00,0.648,0.930,0.584,1.117,0.798,0.390,0.664,0.625,��쓌,0.9,��
2020/08/01,16:10,0.648,0.931,0.584,1.118,0.798,0.390,0.664,0.623,���쓌,1.5,��
2020/08/01,16:20,0.652,0.932,0.584,1.116,0.797,0.390,0.664,0.624,���k��,1.2,��
2020/08/01,16:30,0.651,0.930,0.585,1.116,0.796,0.389,0.663,0.624,���k��,0.9,��
2020/08/01,16:40,0.652,0.930,0.583,1.120,0.798,0.391,0.663,0.623,�k�k��,1.1,��
2020/08/01,16:50,0.650,0.932,0.583,1.115,0.798,0.389,0.663,0.624,��,1.5,��
2020/08/01,17:00,0.650,0.931,0.583,1.118,0.797,0.389,0.664,0.624,���쓌,2.8,��
2020/08/01,17:10,0.651,0.931,0.583,1.117,0.799,0.392,0.665,0.624,���쓌,2.0,��
2020/08/01,17:20,0.650,0.931,0.584,1.119,0.798,0.391,0.665,0.624,��,3.1,��
2020/08/01,17:30,0.649,0.934,0.584,1.117,0.797,0.390,0.665,0.625,���쓌,2.3,��
2020/08/01,17:40,0.648,0.932,0.582,1.116,0.798,0.391,0.665,0.625,�쓌,2.3,��
2020/08/01,17:50,0.650,0.930,0.583,1.117,0.797,0.390,0.664,0.625,�쓌,2.5,��
2020/08/01,18:00,0.647,0.932,0.581,1.117,0.800,0.390,0.664,0.625,�쓌,2.6,��
2020/08/01,18:10,0.649,0.934,0.582,1.121,0.797,0.391,0.661,0.626,���쓌,3.3,��
2020/08/01,18:20,0.649,0.931,0.584,1.120,0.797,0.391,0.664,0.624,���쓌,2.5,��
2020/08/01,18:30,0.650,0.934,0.585,1.119,0.798,0.391,0.662,0.627,��,0.6,��
2020/08/01,18:40,0.650,0.934,0.583,1.119,0.799,0.391,0.662,0.625,��,0.9,��
2020/08/01,18:50,0.650,0.934,0.584,1.117,0.799,0.390,0.664,0.625,��,1.2,��
2020/08/01,19:00,0.651,0.933,0.585,1.119,0.799,0.390,0.662,0.624,��쐼,1.7,��
2020/08/01,19:10,0.652,0.934,0.586,1.118,0.797,0.390,0.662,0.626,��쐼,1.2,��
2020/08/01,19:20,0.652,0.935,0.585,1.118,0.800,0.390,0.663,0.625,��,0.9,��
2020/08/01,19:30,0.653,0.935,0.584,1.120,0.801,0.390,0.665,0.625,�k��,0.6,��
2020/08/01,19:40,0.652,0.935,0.585,1.121,0.800,0.390,0.664,0.625,�k�k��,0.6,��
2020/08/01,19:50,0.653,0.935,0.586,1.121,0.800,0.390,0.665,0.626,�k,0.9,��
2020/08/01,20:00,0.653,0.933,0.586,1.122,0.801,0.390,0.665,0.625,�k,0.9,��
2020/08/01,20:10,0.652,0.935,0.586,1.121,0.801,0.388,0.665,0.625,�k�k��,1.2,��
2020/08/01,20:20,0.651,0.936,0.585,1.121,0.798,0.391,0.665,0.625,�k,1.4,��
2020/08/01,20:30,0.652,0.934,0.586,1.120,0.801,0.390,0.664,0.627,�k�k��,1.5,��
2020/08/01,20:40,0.651,0.935,0.585,1.122,0.798,0.388,0.665,0.627,�k�k��,1.4,��
2020/08/01,20:50,0.652,0.936,0.587,1.121,0.800,0.390,0.666,0.625,�k�k��,1.4,��
2020/08/01,21:00,0.651,0.933,0.585,1.121,0.801,0.391,0.665,0.625,���k��,0.9,��
2020/08/01,21:10,0.652,0.934,0.585,1.122,0.801,0.389,0.665,0.625,�k��,0.8,��
2020/08/01,21:20,0.651,0.932,0.585,1.121,0.800,0.390,0.665,0.626,�k��,0.9,��
2020/08/01,21:30,0.650,0.933,0.585,1.122,0.799,0.389,0.664,0.625,���k��,1.2,��
2020/08/01,21:40,0.652,0.934,0.584,1.122,0.800,0.392,0.665,0.625,���쓌,1.1,��
2020/08/01,21:50,0.652,0.932,0.584,1.121,0.800,0.391,0.665,0.625,���쓌,1.2,��
2020/08/01,22:00,0.653,0.932,0.585,1.120,0.802,0.390,0.664,0.624,��,1.2,��
2020/08/01,22:10,0.651,0.934,0.586,1.123,0.799,0.390,0.664,0.626,�k��,1.1,��
2020/08/01,22:20,0.652,0.932,0.585,1.122,0.801,0.390,0.664,0.625,�k��,1.2,��
2020/08/01,22:30,0.652,0.934,0.583,1.120,0.801,0.389,0.666,0.627,�쓌,0.6,��
2020/08/01,22:40,0.652,0.935,0.582,1.120,0.799,0.390,0.666,0.625,�k�k��,1.2,��
2020/08/01,22:50,0.651,0.932,0.585,1.119,0.800,0.389,0.664,0.625,�k�k��,0.6,��
2020/08/01,23:00,0.651,0.933,0.585,1.123,0.802,0.391,0.666,0.626,-,CALM,��
2020/08/01,23:10,0.651,0.934,0.586,1.122,0.800,0.390,0.664,0.626,���k��,0.9,��
2020/08/01,23:20,0.651,0.934,0.587,1.122,0.801,0.390,0.665,0.626,���k��,1.1,��
2020/08/01,23:30,0.652,0.935,0.586,1.121,0.800,0.390,0.664,0.627,�k��,1.2,��
2020/08/01,23:40,0.651,0.933,0.585,1.123,0.800,0.391,0.664,0.624,���k��,1.5,��
2020/08/01,23:50,0.651,0.935,0.586,1.123,0.802,0.392,0.666,0.626,��,2.0,��
